logo
Rechercher aéroport 
image banner adimage banner adimage banner ad
image banner ad

ZYTL - Dalian/Zhoushuizi

Situé à Dalian, China

ICAO - ZYTL, IATA - DLC

Données fournies par Airmate  

Information générale

Coordonnées: N38°58'0" E121°32'24"
Élévation : 108 feet MSL.
 
Voir autres Aéroports à Liaoning Province

Données opérationnelles

Special qualification required
Heure actuelle UTC:
Heure actuelle locale:
Météo
METAR: ZYTL 222300Z 10004MPS 9000 NSC 19/16 Q1009 NOSIG
TAF: TAF ZYTL 222108Z 2300/2324 35004MPS 5000 BR FEW033 TX25/2306Z TN15/2320Z TEMPO 2300/2306 13005MPS
Voir NOTAMs / SUP AIP / TFR affectant cet aéroport [VIEW]
Fréquences de communication: [VIEW]

Pistes:

Identifiant RWYQFULongueur (ft)Largeur (ft)SurfaceLDA (ft)
1096°10827148CON
28276°10827148CON

Coordonnées de l'aéroport

Adresse: Dalian China

Vue satellite de ZYTL